EXS1RE EGNM-GCRR

Flight info

Callsign EXS1RE
Flight time 3h 56m
Altitude 35000
Route POL DCT BARTN N58 KARNO DCT ALHUP DCT ABWIV DCT PACSE DCT SIDHO DCT TONQU DCT SALCO DCT IBISU DCT BALDA DCT ABUPI DCT MAGUM DCT TAKAV DCT VEDOD UN857 TERTO DCT ALEDU DCT LOBSO
Aircraft B738/M-SDE2E3FGHIRWXY/LB1

Departure

Time 2026-04-30 05:20
Airport Leeds Bradford Airport (EGNM)

Arrival

Time 2026-04-30 09:16
Airport César Manrique-Lanzarote Airport (GCRR)
Time Latitude Longitude Altitude Speed Heading
2026-04-30 04:30 53.86874 -1.65279 664 ft 0 kts
2026-04-30 05:01 53.86871 -1.65279 664 ft 3 kts
2026-04-30 05:01 53.86849 -1.65280 663 ft 3 kts
2026-04-30 05:02 53.86828 -1.65273 661 ft 4 kts 300°
2026-04-30 05:02 53.86825 -1.65261 661 ft 5 kts 271°
2026-04-30 05:02 53.86825 -1.65305 661 ft 3 kts 271°
2026-04-30 05:02 53.86825 -1.65310 661 ft 2 kts 271°
2026-04-30 05:07 53.86825 -1.65311 660 ft 1 kts 271°
2026-04-30 05:07 53.86826 -1.65330 661 ft 3 kts 271°
2026-04-30 05:07 53.86824 -1.65369 661 ft 5 kts 260°
2026-04-30 05:07 53.86814 -1.65454 662 ft 10 kts 270°
2026-04-30 05:08 53.86816 -1.65585 663 ft 10 kts 271°
2026-04-30 05:08 53.86817 -1.65659 663 ft 9 kts 271°
2026-04-30 05:08 53.86816 -1.65768 664 ft 9 kts 264°
2026-04-30 05:08 53.86813 -1.65874 664 ft 9 kts 271°
2026-04-30 05:09 53.86815 -1.65977 665 ft 9 kts 272°
2026-04-30 05:09 53.86799 -1.66067 665 ft 8 kts 211°
2026-04-30 05:09 53.86748 -1.66103 666 ft 9 kts 235°
2026-04-30 05:09 53.86744 -1.66211 667 ft 10 kts 272°
2026-04-30 05:10 53.86778 -1.66341 667 ft 16 kts 315°
2026-04-30 05:10 53.86877 -1.66495 670 ft 22 kts 317°
2026-04-30 05:10 53.87003 -1.66686 674 ft 26 kts 318°
2026-04-30 05:10 53.87135 -1.66891 682 ft 26 kts 317°
2026-04-30 05:11 53.87249 -1.66995 687 ft 17 kts
2026-04-30 05:11 53.87357 -1.66991 688 ft 12 kts 353°
2026-04-30 05:11 53.87405 -1.67080 688 ft 9 kts 267°
2026-04-30 05:11 53.87398 -1.67107 684 ft 0 kts 241°
2026-04-30 05:17 53.87398 -1.67108 684 ft 1 kts 241°
2026-04-30 05:17 53.87379 -1.67155 683 ft 9 kts 230°
2026-04-30 05:17 53.87344 -1.67210 689 ft 2 kts 179°
2026-04-30 05:18 53.87330 -1.67193 685 ft 3 kts 139°
2026-04-30 05:18 53.87320 -1.67177 688 ft 2 kts 138°
2026-04-30 05:18 53.87310 -1.67163 684 ft 2 kts 138°
2026-04-30 05:18 53.87306 -1.67156 682 ft 0 kts 138°
2026-04-30 05:19 53.87303 -1.67151 684 ft 3 kts 137°
2026-04-30 05:19 53.87256 -1.67079 681 ft 22 kts 137°
2026-04-30 05:19 53.86926 -1.66571 670 ft 104 kts 138°
2026-04-30 05:20 53.86226 -1.65491 717 ft 164 kts 134°
2026-04-30 05:20 53.85357 -1.64169 1491 ft 169 kts 136°
2026-04-30 05:20 53.84509 -1.62878 2722 ft 159 kts 135°
2026-04-30 05:20 53.83657 -1.61572 3387 ft 176 kts 136°
2026-04-30 05:21 53.82542 -1.60447 3561 ft 203 kts 160°
2026-04-30 05:21 53.81061 -1.60370 3914 ft 227 kts 186°
2026-04-30 05:21 53.79566 -1.61696 4162 ft 265 kts 220°
2026-04-30 05:21 53.78713 -1.64577 4801 ft 288 kts 256°
2026-04-30 05:22 53.78494 -1.67973 5579 ft 293 kts 259°
2026-04-30 05:22 53.78256 -1.71414 6369 ft 295 kts 258°
2026-04-30 05:22 53.77981 -1.74863 7038 ft 296 kts 257°
2026-04-30 05:22 53.77663 -1.78312 7740 ft 298 kts 256°
2026-04-30 05:23 53.77278 -1.81759 8484 ft 297 kts 247°
2026-04-30 05:23 53.76286 -1.84724 9208 ft 288 kts 225°
2026-04-30 05:23 53.74971 -1.87335 9969 ft 289 kts 219°
2026-04-30 05:23 53.73435 -1.89507 10628 ft 289 kts 211°
2026-04-30 05:24 53.71766 -1.91512 10846 ft 310 kts 209°
2026-04-30 05:24 53.69927 -1.93642 11021 ft 331 kts 210°
2026-04-30 05:24 53.67972 -1.95918 11258 ft 350 kts 210°
2026-04-30 05:24 53.65960 -1.98297 11799 ft 356 kts 211°
2026-04-30 05:25 53.63936 -2.00723 12482 ft 358 kts 211°
2026-04-30 05:25 53.61904 -2.03179 13203 ft 360 kts 211°
2026-04-30 05:25 53.59871 -2.05645 13871 ft 362 kts 211°
2026-04-30 05:25 53.57777 -2.08020 14462 ft 364 kts 208°
2026-04-30 05:26 53.55593 -2.10263 14915 ft 371 kts 207°
2026-04-30 05:26 53.53364 -2.12480 15526 ft 372 kts 206°
2026-04-30 05:26 53.51133 -2.14690 16145 ft 374 kts 206°
2026-04-30 05:26 53.48888 -2.16923 16733 ft 376 kts 206°
2026-04-30 05:27 53.46628 -2.19184 17287 ft 379 kts 206°
2026-04-30 05:27 53.44354 -2.21468 17844 ft 383 kts 206°
2026-04-30 05:27 53.42066 -2.23774 18393 ft 386 kts 206°
2026-04-30 05:27 53.39758 -2.26103 18913 ft 388 kts 206°
2026-04-30 05:28 53.37438 -2.28444 19398 ft 391 kts 206°
2026-04-30 05:28 53.35104 -2.30798 19883 ft 393 kts 206°
2026-04-30 05:28 53.32753 -2.33166 20364 ft 396 kts 207°
2026-04-30 05:28 53.30386 -2.35548 20826 ft 398 kts 207°
2026-04-30 05:29 53.28003 -2.37941 21289 ft 401 kts 207°
2026-04-30 05:29 53.25602 -2.40350 21733 ft 404 kts 207°
2026-04-30 05:29 53.23188 -2.42769 22176 ft 406 kts 207°
2026-04-30 05:29 53.20761 -2.45197 22611 ft 409 kts 207°
2026-04-30 05:30 53.18309 -2.47648 23030 ft 412 kts 207°
2026-04-30 05:30 53.15845 -2.50106 23451 ft 414 kts 207°
2026-04-30 05:30 53.13365 -2.52578 23888 ft 417 kts 207°
2026-04-30 05:30 53.10898 -2.55033 24244 ft 419 kts 207°
2026-04-30 05:31 53.08401 -2.57516 24648 ft 419 kts 207°
2026-04-30 05:31 53.05893 -2.60005 25034 ft 420 kts 207°
2026-04-30 05:31 53.03380 -2.62496 25367 ft 423 kts 207°
2026-04-30 05:31 53.00844 -2.65006 25687 ft 425 kts 207°
2026-04-30 05:32 52.98297 -2.67522 26016 ft 427 kts 206°
2026-04-30 05:32 52.95740 -2.70047 26339 ft 429 kts 206°
2026-04-30 05:32 52.93162 -2.72588 26625 ft 432 kts 206°
2026-04-30 05:32 52.90576 -2.75133 26934 ft 434 kts 206°
2026-04-30 05:33 52.87972 -2.77693 27261 ft 435 kts 206°
2026-04-30 05:33 52.85364 -2.80254 27556 ft 437 kts 206°
2026-04-30 05:33 52.82744 -2.82823 27852 ft 439 kts 206°
2026-04-30 05:33 52.80016 -2.85057 28119 ft 436 kts 196°
2026-04-30 05:34 52.77115 -2.86427 28430 ft 433 kts 187°
2026-04-30 05:34 52.74135 -2.87035 28709 ft 431 kts 181°
2026-04-30 05:34 52.71148 -2.87462 28996 ft 433 kts 182°
2026-04-30 05:34 52.68145 -2.87913 29320 ft 433 kts 182°
2026-04-30 05:35 52.65146 -2.88384 29745 ft 431 kts 182°
2026-04-30 05:35 52.62171 -2.88864 30191 ft 429 kts 182°
2026-04-30 05:35 52.59206 -2.89350 30551 ft 428 kts 182°
2026-04-30 05:35 52.56242 -2.89837 30828 ft 428 kts 182°
2026-04-30 05:36 52.53273 -2.90326 31083 ft 429 kts 182°
2026-04-30 05:36 52.50304 -2.90814 31372 ft 428 kts 182°
2026-04-30 05:36 52.47343 -2.91301 31660 ft 428 kts 182°
2026-04-30 05:36 52.44362 -2.91789 31812 ft 431 kts 182°
2026-04-30 05:37 52.41415 -2.92270 32017 ft 432 kts 182°
2026-04-30 05:37 52.38424 -2.92760 32342 ft 431 kts 182°
2026-04-30 05:37 52.35445 -2.93247 32670 ft 430 kts 183°
2026-04-30 05:37 52.32474 -2.93731 32910 ft 430 kts 183°
2026-04-30 05:38 52.29494 -2.94216 33139 ft 431 kts 183°
2026-04-30 05:38 52.26512 -2.94700 33395 ft 431 kts 183°
2026-04-30 05:38 52.23529 -2.95184 33673 ft 430 kts 183°
2026-04-30 05:38 52.20537 -2.95668 33771 ft 434 kts 183°
2026-04-30 05:39 52.17528 -2.96154 33983 ft 435 kts 182°
2026-04-30 05:39 52.14519 -2.96641 34328 ft 432 kts 182°
2026-04-30 05:39 52.11537 -2.97124 34582 ft 431 kts 182°
2026-04-30 05:39 52.08561 -2.97604 34773 ft 431 kts 183°
2026-04-30 05:40 52.05578 -2.98083 34971 ft 430 kts 183°
2026-04-30 05:40 52.02602 -2.98562 35229 ft 429 kts 183°
2026-04-30 05:40 51.96624 -2.99520 35310 ft 433 kts 183°
2026-04-30 05:41 51.90640 -3.00478 35323 ft 430 kts 183°
2026-04-30 05:41 51.84703 -3.01511 35362 ft 427 kts 185°
2026-04-30 05:42 51.78819 -3.02768 35369 ft 426 kts 185°
2026-04-30 05:42 51.72955 -3.04032 35372 ft 425 kts 185°
2026-04-30 05:43 51.67092 -3.05266 35373 ft 425 kts 185°
2026-04-30 05:43 51.61210 -3.06487 35346 ft 427 kts 185°
2026-04-30 05:44 51.55294 -3.07711 35308 ft 430 kts 185°
2026-04-30 05:44 51.52327 -3.08324 35182 ft 431 kts 185°
2026-04-30 05:44 51.49341 -3.08941 35170 ft 433 kts 185°
2026-04-30 05:45 51.43362 -3.10174 35171 ft 435 kts 185°
2026-04-30 05:45 51.37349 -3.11410 35166 ft 436 kts 185°
2026-04-30 05:46 51.31317 -3.12644 35182 ft 438 kts 185°
2026-04-30 05:46 51.25270 -3.13877 35179 ft 438 kts 185°
2026-04-30 05:47 51.19215 -3.15111 35181 ft 438 kts 185°
2026-04-30 05:47 51.13166 -3.16339 35179 ft 438 kts 185°
2026-04-30 05:48 51.07124 -3.17564 35172 ft 437 kts 185°
2026-04-30 05:48 51.01094 -3.18782 35161 ft 436 kts 185°
2026-04-30 05:49 50.95079 -3.19995 35149 ft 435 kts 185°
2026-04-30 05:49 50.89078 -3.21201 35139 ft 434 kts 185°
2026-04-30 05:50 50.83297 -3.22360 35142 ft 433 kts 185°
2026-04-30 05:50 50.77322 -3.23555 35135 ft 432 kts 185°
2026-04-30 05:51 50.71362 -3.24750 35134 ft 432 kts 185°
2026-04-30 05:51 50.65396 -3.25950 35133 ft 432 kts 185°
2026-04-30 05:52 50.59438 -3.27145 35149 ft 432 kts 185°
2026-04-30 05:52 50.53483 -3.28336 35131 ft 431 kts 185°
2026-04-30 05:53 50.47575 -3.29515 35126 ft 431 kts 185°
2026-04-30 05:53 50.41632 -3.30698 35120 ft 430 kts 185°
2026-04-30 05:54 50.35716 -3.32112 35119 ft 431 kts 189°
2026-04-30 05:54 50.29854 -3.34130 35112 ft 431 kts 190°
2026-04-30 05:55 50.24000 -3.36195 35104 ft 431 kts 190°
2026-04-30 05:55 50.18152 -3.38198 35104 ft 430 kts 189°
2026-04-30 05:56 50.13286 -3.39836 35115 ft 430 kts 189°
2026-04-30 05:56 50.07440 -3.41792 35083 ft 429 kts 189°
2026-04-30 05:57 50.01610 -3.43739 35090 ft 428 kts 189°
2026-04-30 05:57 49.95793 -3.45678 35077 ft 427 kts 189°
2026-04-30 05:58 49.89987 -3.47608 35081 ft 426 kts 189°
2026-04-30 05:58 49.84197 -3.49529 35075 ft 425 kts 189°
2026-04-30 05:59 49.78413 -3.51444 35068 ft 425 kts 189°
2026-04-30 05:59 49.72643 -3.53405 35062 ft 425 kts 191°
2026-04-30 06:00 49.66936 -3.55862 35063 ft 426 kts 193°
2026-04-30 06:00 49.61240 -3.58439 35064 ft 427 kts 193°
2026-04-30 06:01 49.55525 -3.60996 35059 ft 429 kts 192°
2026-04-30 06:01 49.49784 -3.63529 35053 ft 429 kts 192°
2026-04-30 06:02 49.44029 -3.66049 35046 ft 430 kts 192°
2026-04-30 06:02 49.38308 -3.68546 35052 ft 431 kts 192°
2026-04-30 06:03 49.32541 -3.71058 35043 ft 431 kts 192°
2026-04-30 06:03 49.26766 -3.73567 35033 ft 431 kts 192°
2026-04-30 06:04 49.20999 -3.76067 35038 ft 431 kts 193°
2026-04-30 06:05 49.12343 -3.79808 35028 ft 431 kts 193°
2026-04-30 06:05 49.06576 -3.82293 35026 ft 430 kts 193°
2026-04-30 06:06 49.00821 -3.84767 35019 ft 430 kts 193°
2026-04-30 06:06 48.95071 -3.87232 35014 ft 429 kts 193°
2026-04-30 06:07 48.89327 -3.89690 35004 ft 428 kts 193°
2026-04-30 06:07 48.83594 -3.92136 34991 ft 428 kts 193°
2026-04-30 06:08 48.77868 -3.94573 34990 ft 427 kts 193°
2026-04-30 06:08 48.72147 -3.97003 34974 ft 426 kts 193°
2026-04-30 06:09 48.66444 -3.99420 34973 ft 426 kts 193°
2026-04-30 06:09 48.60745 -4.01829 34971 ft 425 kts 193°
2026-04-30 06:10 48.55047 -4.04232 34967 ft 424 kts 193°
2026-04-30 06:10 48.49408 -4.06605 34978 ft 424 kts 193°
2026-04-30 06:11 48.43725 -4.08990 34976 ft 423 kts 193°
2026-04-30 06:11 48.38055 -4.11365 34972 ft 423 kts 193°
2026-04-30 06:12 48.32384 -4.13734 34973 ft 423 kts 193°
2026-04-30 06:12 48.26709 -4.16100 34967 ft 423 kts 193°
2026-04-30 06:13 48.21028 -4.18463 34968 ft 424 kts 193°
2026-04-30 06:13 48.15341 -4.20822 34971 ft 424 kts 193°
2026-04-30 06:14 48.09648 -4.23179 34968 ft 425 kts 193°
2026-04-30 06:14 48.03950 -4.25533 34975 ft 425 kts 193°
2026-04-30 06:15 47.98242 -4.27885 34971 ft 426 kts 193°
2026-04-30 06:15 47.92525 -4.30236 34970 ft 426 kts 193°
2026-04-30 06:16 47.86809 -4.32581 34970 ft 426 kts 193°
2026-04-30 06:16 47.81136 -4.34903 34971 ft 425 kts 193°
2026-04-30 06:17 47.75434 -4.37231 34971 ft 425 kts 193°
2026-04-30 06:17 47.69743 -4.39550 34973 ft 424 kts 193°
2026-04-30 06:18 47.64048 -4.41865 34979 ft 424 kts 192°
2026-04-30 06:18 47.58360 -4.44172 34976 ft 424 kts 192°
2026-04-30 06:19 47.52681 -4.46470 34978 ft 423 kts 192°
2026-04-30 06:19 47.46993 -4.48767 34969 ft 424 kts 192°
2026-04-30 06:20 47.41302 -4.51060 34984 ft 424 kts 192°
2026-04-30 06:20 47.35594 -4.53354 34982 ft 426 kts 192°
2026-04-30 06:21 47.29866 -4.55651 34985 ft 427 kts 192°
2026-04-30 06:21 47.24131 -4.57946 34979 ft 428 kts 192°
2026-04-30 06:22 47.18376 -4.60245 34983 ft 429 kts 192°
2026-04-30 06:22 47.12642 -4.62530 34982 ft 430 kts 192°
2026-04-30 06:23 47.06858 -4.64819 34975 ft 431 kts 192°
2026-04-30 06:23 47.01046 -4.67055 34982 ft 432 kts 192°
2026-04-30 06:24 46.95223 -4.69279 34984 ft 433 kts 192°
2026-04-30 06:24 46.89396 -4.71506 34981 ft 433 kts 192°
2026-04-30 06:25 46.83555 -4.73738 34978 ft 434 kts 193°
2026-04-30 06:25 46.77719 -4.75965 34985 ft 434 kts 192°
2026-04-30 06:26 46.71873 -4.78191 34982 ft 434 kts 192°
2026-04-30 06:26 46.66038 -4.80407 34979 ft 433 kts 192°
2026-04-30 06:27 46.60212 -4.82615 34981 ft 433 kts 192°
2026-04-30 06:27 46.54383 -4.84820 34994 ft 432 kts 193°
2026-04-30 06:28 46.48568 -4.87013 34982 ft 432 kts 193°
2026-04-30 06:28 46.42757 -4.89201 34979 ft 431 kts 194°
2026-04-30 06:29 46.36997 -4.91364 34985 ft 431 kts 194°
2026-04-30 06:29 46.31197 -4.93538 34990 ft 430 kts 194°
2026-04-30 06:30 46.25399 -4.95707 34978 ft 430 kts 194°
2026-04-30 06:30 46.19560 -4.97886 34990 ft 431 kts 194°
2026-04-30 06:31 46.13753 -5.00048 34998 ft 432 kts 194°
2026-04-30 06:31 46.07927 -5.02212 34995 ft 433 kts 194°
2026-04-30 06:32 46.02119 -5.04366 34990 ft 435 kts 194°
2026-04-30 06:32 45.96228 -5.06545 35007 ft 441 kts 194°
2026-04-30 06:33 45.90241 -5.08755 35003 ft 447 kts 194°
2026-04-30 06:33 45.84206 -5.10977 34992 ft 449 kts 194°
2026-04-30 06:34 45.78129 -5.13210 34986 ft 452 kts 195°
2026-04-30 06:34 45.72022 -5.15449 34998 ft 454 kts 195°
2026-04-30 06:35 45.65891 -5.17692 34995 ft 455 kts 195°
2026-04-30 06:35 45.59754 -5.19932 34994 ft 456 kts 195°
2026-04-30 06:36 45.53609 -5.22170 34999 ft 455 kts 195°
2026-04-30 06:36 45.47472 -5.24400 34998 ft 455 kts 195°
2026-04-30 06:37 45.41343 -5.26622 34994 ft 454 kts 195°
2026-04-30 06:37 45.35221 -5.28836 35002 ft 454 kts 195°
2026-04-30 06:38 45.29108 -5.31042 35002 ft 453 kts 195°
2026-04-30 06:38 45.23034 -5.33229 34994 ft 453 kts 195°
2026-04-30 06:39 45.16918 -5.35427 35005 ft 454 kts 195°
2026-04-30 06:39 45.10783 -5.37627 35001 ft 455 kts 195°
2026-04-30 06:40 45.04645 -5.39823 35003 ft 456 kts 195°
2026-04-30 06:40 44.98482 -5.42022 35011 ft 457 kts 195°
2026-04-30 06:41 44.92301 -5.44224 35007 ft 458 kts 195°
2026-04-30 06:41 44.86145 -5.46412 35008 ft 459 kts 195°
2026-04-30 06:42 44.79939 -5.48612 35010 ft 460 kts 196°
2026-04-30 06:42 44.73724 -5.50811 35009 ft 461 kts 196°
2026-04-30 06:43 44.67495 -5.53011 35008 ft 462 kts 196°
2026-04-30 06:43 44.61313 -5.55213 35010 ft 461 kts 198°
2026-04-30 06:44 44.55383 -5.58549 35016 ft 459 kts 206°
2026-04-30 06:44 44.49576 -5.62253 35014 ft 458 kts 206°
2026-04-30 06:45 44.43763 -5.65920 35009 ft 458 kts 206°
2026-04-30 06:45 44.37944 -5.69526 35014 ft 458 kts 206°
2026-04-30 06:46 44.32115 -5.73105 35026 ft 457 kts 206°
2026-04-30 06:46 44.26291 -5.76668 35007 ft 456 kts 206°
2026-04-30 06:47 44.20496 -5.80209 35015 ft 455 kts 206°
2026-04-30 06:47 44.15683 -5.83144 35018 ft 454 kts 206°
2026-04-30 06:48 44.09908 -5.86660 35019 ft 452 kts 206°
2026-04-30 06:48 44.04141 -5.90163 35018 ft 452 kts 206°
2026-04-30 06:49 43.98389 -5.93650 35018 ft 451 kts 206°
2026-04-30 06:49 43.92632 -5.97133 35016 ft 451 kts 206°
2026-04-30 06:50 43.86880 -6.00606 35005 ft 451 kts 206°
2026-04-30 06:50 43.81130 -6.04069 35009 ft 451 kts 206°
2026-04-30 06:51 43.75370 -6.07532 35006 ft 451 kts 206°
2026-04-30 06:51 43.69607 -6.10989 35011 ft 451 kts 206°
2026-04-30 06:52 43.63839 -6.14441 35001 ft 451 kts 206°
2026-04-30 06:52 43.58086 -6.17877 35020 ft 451 kts 206°
2026-04-30 06:53 43.52314 -6.21317 35025 ft 450 kts 206°
2026-04-30 06:53 43.46580 -6.24728 35010 ft 450 kts 206°
2026-04-30 06:54 43.40837 -6.28137 35007 ft 449 kts 206°
2026-04-30 06:54 43.35105 -6.31533 35009 ft 448 kts 206°
2026-04-30 06:55 43.29387 -6.34913 35004 ft 447 kts 206°
2026-04-30 06:55 43.23670 -6.38286 35009 ft 447 kts 206°
2026-04-30 06:56 43.17964 -6.41645 35016 ft 446 kts 206°
2026-04-30 06:56 43.12262 -6.44995 35019 ft 446 kts 206°
2026-04-30 06:57 43.06566 -6.48335 35011 ft 444 kts 206°
2026-04-30 06:57 43.00891 -6.51655 35013 ft 443 kts 206°
2026-04-30 06:58 42.95229 -6.54961 35022 ft 442 kts 206°
2026-04-30 06:58 42.89575 -6.58258 35015 ft 442 kts 206°
2026-04-30 06:59 42.83929 -6.61541 35024 ft 441 kts 206°
2026-04-30 06:59 42.78296 -6.64811 35017 ft 440 kts 206°
2026-04-30 07:00 42.72708 -6.68048 35016 ft 439 kts 206°
2026-04-30 07:00 42.67089 -6.71297 35018 ft 439 kts 206°
2026-04-30 07:01 42.61471 -6.74540 35023 ft 439 kts 206°
2026-04-30 07:01 42.55853 -6.77775 35029 ft 439 kts 206°
2026-04-30 07:02 42.50226 -6.81009 35025 ft 439 kts 206°
2026-04-30 07:02 42.44602 -6.84236 35014 ft 439 kts 206°
2026-04-30 07:03 42.38972 -6.87459 35029 ft 439 kts 206°
2026-04-30 07:03 42.33353 -6.90670 35015 ft 438 kts 206°
2026-04-30 07:04 42.27739 -6.93872 35031 ft 438 kts 206°
2026-04-30 07:04 42.22130 -6.97064 35039 ft 437 kts 206°
2026-04-30 07:05 42.13737 -7.01831 35048 ft 436 kts 206°
2026-04-30 07:05 42.08144 -7.04999 35049 ft 436 kts 206°
2026-04-30 07:06 42.02554 -7.08160 35048 ft 435 kts 206°
2026-04-30 07:06 41.96973 -7.11309 35033 ft 435 kts 207°
2026-04-30 07:07 41.91407 -7.14444 35047 ft 433 kts 207°
2026-04-30 07:07 41.85883 -7.17551 35054 ft 433 kts 207°
2026-04-30 07:08 41.80328 -7.20670 35063 ft 433 kts 207°
2026-04-30 07:08 41.74763 -7.23774 35038 ft 434 kts 206°
2026-04-30 07:09 41.69081 -7.26532 35057 ft 435 kts 203°
2026-04-30 07:09 41.63354 -7.29130 35054 ft 434 kts 203°
2026-04-30 07:10 41.57634 -7.31738 35064 ft 434 kts 204°
2026-04-30 07:10 41.51923 -7.34369 35051 ft 434 kts 204°
2026-04-30 07:11 41.46207 -7.37013 35190 ft 436 kts 204°
2026-04-30 07:11 41.43347 -7.38335 35428 ft 434 kts 204°
2026-04-30 07:11 41.40497 -7.39650 35710 ft 432 kts 204°
2026-04-30 07:12 41.37665 -7.40955 35975 ft 430 kts 204°
2026-04-30 07:12 41.34839 -7.42258 36055 ft 432 kts 204°
2026-04-30 07:12 41.29154 -7.44876 36058 ft 432 kts 203°
2026-04-30 07:13 41.23517 -7.47463 36060 ft 424 kts 203°
2026-04-30 07:13 41.17963 -7.50007 36063 ft 420 kts 203°
2026-04-30 07:14 41.12487 -7.52514 36070 ft 418 kts 203°
2026-04-30 07:14 41.07001 -7.55022 36069 ft 415 kts 203°
2026-04-30 07:15 41.01544 -7.57511 36077 ft 415 kts 203°
2026-04-30 07:15 40.96086 -7.59997 36079 ft 415 kts 203°
2026-04-30 07:16 40.90618 -7.62483 36089 ft 416 kts 202°
2026-04-30 07:16 40.85137 -7.64970 36075 ft 418 kts 202°
2026-04-30 07:17 40.79629 -7.67465 36080 ft 419 kts 202°
2026-04-30 07:18 40.71332 -7.71214 36078 ft 421 kts 202°
2026-04-30 07:18 40.65781 -7.73717 36077 ft 422 kts 202°
2026-04-30 07:19 40.60218 -7.76220 36083 ft 422 kts 202°
2026-04-30 07:19 40.54662 -7.78716 36072 ft 422 kts 202°
2026-04-30 07:20 40.49110 -7.81206 36075 ft 421 kts 202°
2026-04-30 07:20 40.43573 -7.83684 36087 ft 420 kts 202°
2026-04-30 07:21 40.38048 -7.86154 36080 ft 419 kts 202°
2026-04-30 07:21 40.32577 -7.88594 36066 ft 418 kts 202°
2026-04-30 07:22 40.24335 -7.92264 36084 ft 416 kts 202°
2026-04-30 07:22 40.18856 -7.94699 36074 ft 415 kts 202°
2026-04-30 07:23 40.13388 -7.97124 36061 ft 415 kts 202°
2026-04-30 07:23 40.07902 -7.99554 35851 ft 421 kts 202°
2026-04-30 07:24 40.05122 -8.00784 35604 ft 421 kts 202°
2026-04-30 07:24 40.02353 -8.02007 35352 ft 419 kts 202°
2026-04-30 07:24 39.99594 -8.03224 35114 ft 418 kts 202°
2026-04-30 07:24 39.96833 -8.04441 34853 ft 418 kts 202°
2026-04-30 07:25 39.94081 -8.05653 34617 ft 418 kts 202°
2026-04-30 07:25 39.91322 -8.06868 34386 ft 418 kts 202°
2026-04-30 07:25 39.88565 -8.08081 34180 ft 419 kts 202°
2026-04-30 07:25 39.85799 -8.09298 34127 ft 420 kts 202°
2026-04-30 07:26 39.80224 -8.11746 34094 ft 424 kts 202°
2026-04-30 07:26 39.74669 -8.14180 34083 ft 424 kts 202°
2026-04-30 07:27 39.69087 -8.16621 34085 ft 422 kts 201°
2026-04-30 07:27 39.63527 -8.19049 34092 ft 423 kts 201°
2026-04-30 07:28 39.57891 -8.21509 34101 ft 431 kts 201°
2026-04-30 07:28 39.52173 -8.23998 34089 ft 435 kts 201°
2026-04-30 07:29 39.46432 -8.26491 34084 ft 435 kts 201°
2026-04-30 07:29 39.40690 -8.28981 34086 ft 435 kts 201°
2026-04-30 07:30 39.32096 -8.32700 34092 ft 434 kts 201°
2026-04-30 07:31 39.26378 -8.35171 34084 ft 433 kts 200°
2026-04-30 07:31 39.20676 -8.37630 34089 ft 432 kts 200°
2026-04-30 07:32 39.14953 -8.39968 34090 ft 432 kts 197°
2026-04-30 07:32 39.09125 -8.41843 34087 ft 431 kts 196°
2026-04-30 07:33 39.03296 -8.43645 34080 ft 431 kts 195°
2026-04-30 07:33 38.97475 -8.45467 34089 ft 430 kts 196°
2026-04-30 07:34 38.91708 -8.47291 34091 ft 430 kts 196°
2026-04-30 07:34 38.85905 -8.49131 34094 ft 430 kts 196°
2026-04-30 07:35 38.80099 -8.50971 34085 ft 430 kts 195°
2026-04-30 07:35 38.74291 -8.52809 34090 ft 430 kts 195°
2026-04-30 07:36 38.68474 -8.54645 34088 ft 431 kts 195°
2026-04-30 07:36 38.62648 -8.56481 34091 ft 431 kts 195°
2026-04-30 07:37 38.56817 -8.58315 34083 ft 432 kts 195°
2026-04-30 07:37 38.51963 -8.59840 34091 ft 432 kts 195°
2026-04-30 07:38 38.46116 -8.61674 34090 ft 433 kts 195°
2026-04-30 07:38 38.40268 -8.63505 34090 ft 433 kts 195°
2026-04-30 07:39 38.34414 -8.65335 34089 ft 433 kts 195°
2026-04-30 07:39 38.28557 -8.67163 34084 ft 433 kts 195°
2026-04-30 07:40 38.22699 -8.68988 34090 ft 433 kts 195°
2026-04-30 07:40 38.16843 -8.70809 34087 ft 433 kts 195°
2026-04-30 07:41 38.10997 -8.72625 34097 ft 433 kts 194°
2026-04-30 07:41 38.05138 -8.74441 34091 ft 433 kts 194°
2026-04-30 07:42 37.99284 -8.76253 34089 ft 433 kts 194°
2026-04-30 07:42 37.93434 -8.78060 34085 ft 432 kts 194°
2026-04-30 07:43 37.87590 -8.79863 34081 ft 432 kts 194°
2026-04-30 07:43 37.81754 -8.81661 34083 ft 432 kts 194°
2026-04-30 07:44 37.75920 -8.83455 34084 ft 431 kts 194°
2026-04-30 07:44 37.70092 -8.85244 34088 ft 431 kts 194°
2026-04-30 07:45 37.64260 -8.87031 34083 ft 431 kts 194°
2026-04-30 07:45 37.58431 -8.88815 34087 ft 431 kts 194°
2026-04-30 07:46 37.52601 -8.90596 34086 ft 431 kts 194°
2026-04-30 07:46 37.46765 -8.92376 34086 ft 432 kts 194°
2026-04-30 07:47 37.40921 -8.94156 34081 ft 432 kts 194°
2026-04-30 07:47 37.35067 -8.95936 34083 ft 433 kts 194°
2026-04-30 07:48 37.29215 -8.97712 34086 ft 433 kts 194°
2026-04-30 07:48 37.23391 -8.99477 34088 ft 433 kts 194°
2026-04-30 07:49 37.17529 -9.01251 34087 ft 433 kts 194°
2026-04-30 07:49 37.11663 -9.03023 34087 ft 433 kts 193°
2026-04-30 07:50 37.05802 -9.04791 34090 ft 433 kts 193°
2026-04-30 07:50 36.99935 -9.06558 34082 ft 433 kts 193°
2026-04-30 07:51 36.94075 -9.08320 34084 ft 433 kts 193°
2026-04-30 07:51 36.88222 -9.10076 34090 ft 433 kts 193°
2026-04-30 07:52 36.82361 -9.11833 34090 ft 433 kts 193°
2026-04-30 07:52 36.76502 -9.13586 34087 ft 433 kts 193°
2026-04-30 07:53 36.70641 -9.15338 34087 ft 433 kts 193°
2026-04-30 07:53 36.64771 -9.17089 34088 ft 434 kts 193°
2026-04-30 07:54 36.58929 -9.18829 34081 ft 435 kts 193°
2026-04-30 07:54 36.53047 -9.20578 34086 ft 435 kts 193°
2026-04-30 07:55 36.47107 -9.22342 34082 ft 436 kts 193°
2026-04-30 07:55 36.41205 -9.24091 34083 ft 437 kts 193°
2026-04-30 07:56 36.35319 -9.25833 34086 ft 438 kts 193°
2026-04-30 07:56 36.29352 -9.27597 34091 ft 438 kts 193°
2026-04-30 07:57 36.23416 -9.29349 34089 ft 439 kts 193°
2026-04-30 07:57 36.17471 -9.31100 34085 ft 439 kts 193°
2026-04-30 07:58 36.11523 -9.32850 34082 ft 440 kts 194°
2026-04-30 07:58 36.05564 -9.34601 34089 ft 440 kts 194°
2026-04-30 07:59 35.99612 -9.36346 34090 ft 440 kts 194°
2026-04-30 07:59 35.93839 -9.38743 34089 ft 438 kts 206°
2026-04-30 08:00 35.85606 -9.43675 34092 ft 438 kts 206°
2026-04-30 08:00 35.80118 -9.46940 34096 ft 437 kts 206°
2026-04-30 08:01 35.74627 -9.50174 34089 ft 437 kts 206°
2026-04-30 08:01 35.69140 -9.53389 34089 ft 436 kts 206°
2026-04-30 08:02 35.60928 -9.58189 34086 ft 435 kts 206°
2026-04-30 08:03 35.49990 -9.64567 34086 ft 435 kts 206°
2026-04-30 08:04 35.44562 -9.67725 34088 ft 435 kts 206°
2026-04-30 08:04 35.39061 -9.70921 34089 ft 435 kts 206°
2026-04-30 08:05 35.33591 -9.74094 34089 ft 435 kts 206°
2026-04-30 08:05 35.28128 -9.77258 34085 ft 435 kts 206°
2026-04-30 08:06 35.22662 -9.80419 34091 ft 435 kts 206°
2026-04-30 08:06 35.17187 -9.83581 34098 ft 435 kts 206°
2026-04-30 08:07 35.11717 -9.86735 34093 ft 435 kts 206°
2026-04-30 08:07 35.06234 -9.89892 34260 ft 437 kts 206°
2026-04-30 08:07 35.03486 -9.91472 34541 ft 435 kts 206°
2026-04-30 08:08 35.00758 -9.93040 34844 ft 433 kts 206°
2026-04-30 08:08 34.98034 -9.94604 35146 ft 431 kts 206°
2026-04-30 08:08 34.95361 -9.96137 35370 ft 430 kts 206°
2026-04-30 08:08 34.92654 -9.97690 35559 ft 431 kts 206°
2026-04-30 08:09 34.89944 -9.99242 35767 ft 430 kts 206°
2026-04-30 08:09 34.87239 -10.00791 35985 ft 429 kts 206°
2026-04-30 08:09 34.84538 -10.02337 36228 ft 429 kts 206°
2026-04-30 08:09 34.81836 -10.03882 36410 ft 429 kts 206°
2026-04-30 08:10 34.79135 -10.05425 36575 ft 429 kts 206°
2026-04-30 08:10 34.76438 -10.06965 36771 ft 429 kts 206°
2026-04-30 08:10 34.73740 -10.08503 36989 ft 428 kts 206°
2026-04-30 08:10 34.71045 -10.10040 37093 ft 429 kts 206°
2026-04-30 08:11 34.68340 -10.11581 37092 ft 430 kts 206°
2026-04-30 08:11 34.62939 -10.14654 37074 ft 426 kts 206°
2026-04-30 08:12 34.57607 -10.17683 37093 ft 421 kts 206°
2026-04-30 08:12 34.52308 -10.20690 37104 ft 420 kts 206°
2026-04-30 08:13 34.47023 -10.23685 37088 ft 419 kts 206°
2026-04-30 08:13 34.41741 -10.26674 37096 ft 419 kts 206°
2026-04-30 08:14 34.36488 -10.29642 37095 ft 420 kts 206°
2026-04-30 08:14 34.31183 -10.32636 37095 ft 421 kts 206°
2026-04-30 08:15 34.25856 -10.35637 37094 ft 423 kts 206°
2026-04-30 08:15 34.20511 -10.38645 37094 ft 425 kts 206°
2026-04-30 08:16 34.15147 -10.41658 37096 ft 426 kts 206°
2026-04-30 08:16 34.09765 -10.44678 37095 ft 427 kts 206°
2026-04-30 08:17 34.04368 -10.47702 37094 ft 428 kts 206°
2026-04-30 08:17 33.98972 -10.50721 37087 ft 428 kts 206°
2026-04-30 08:18 33.93579 -10.53734 37096 ft 427 kts 206°
2026-04-30 08:18 33.88190 -10.56741 37094 ft 427 kts 206°
2026-04-30 08:19 33.82804 -10.59742 37094 ft 426 kts 206°
2026-04-30 08:19 33.77429 -10.62732 37092 ft 425 kts 206°
2026-04-30 08:20 33.72063 -10.65713 37090 ft 424 kts 206°
2026-04-30 08:20 33.66712 -10.68682 37091 ft 423 kts 206°
2026-04-30 08:21 33.61365 -10.71645 37091 ft 423 kts 206°
2026-04-30 08:21 33.56060 -10.74580 37093 ft 422 kts 206°
2026-04-30 08:22 33.50732 -10.77524 37090 ft 422 kts 206°
2026-04-30 08:22 33.45405 -10.80464 37090 ft 421 kts 206°
2026-04-30 08:23 33.40081 -10.83397 37087 ft 421 kts 206°
2026-04-30 08:23 33.34748 -10.86332 37092 ft 422 kts 206°
2026-04-30 08:24 33.30318 -10.88768 37096 ft 422 kts 206°
2026-04-30 08:24 33.24980 -10.91698 37092 ft 422 kts 206°
2026-04-30 08:25 33.19636 -10.94628 37086 ft 423 kts 206°
2026-04-30 08:25 33.14281 -10.97559 37095 ft 423 kts 207°
2026-04-30 08:26 33.08921 -11.00490 37095 ft 424 kts 207°
2026-04-30 08:26 33.03550 -11.03422 37096 ft 425 kts 207°
2026-04-30 08:27 32.98167 -11.06357 37096 ft 426 kts 207°
2026-04-30 08:27 32.92776 -11.09293 37095 ft 426 kts 206°
2026-04-30 08:28 32.87382 -11.12226 37096 ft 427 kts 206°
2026-04-30 08:28 32.81982 -11.15158 37096 ft 427 kts 206°
2026-04-30 08:29 32.76582 -11.18087 37094 ft 427 kts 206°
2026-04-30 08:29 32.71173 -11.21016 37094 ft 427 kts 206°
2026-04-30 08:30 32.65811 -11.23917 37095 ft 426 kts 206°
2026-04-30 08:30 32.60416 -11.26831 37096 ft 426 kts 207°
2026-04-30 08:31 32.55022 -11.29741 37095 ft 425 kts 207°
2026-04-30 08:31 32.49641 -11.32639 37096 ft 425 kts 207°
2026-04-30 08:32 32.44255 -11.35538 37101 ft 425 kts 207°
2026-04-30 08:32 32.38854 -11.38440 37098 ft 426 kts 207°
2026-04-30 08:33 32.33460 -11.41335 37102 ft 426 kts 207°
2026-04-30 08:33 32.28055 -11.44231 37104 ft 427 kts 207°
2026-04-30 08:34 32.22639 -11.47130 37098 ft 428 kts 207°
2026-04-30 08:34 32.17214 -11.50029 37099 ft 428 kts 207°
2026-04-30 08:35 32.11783 -11.52929 37098 ft 429 kts 207°
2026-04-30 08:35 32.06341 -11.55830 37085 ft 429 kts 207°
2026-04-30 08:36 32.00893 -11.58730 37098 ft 430 kts 207°
2026-04-30 08:36 31.95442 -11.61629 37101 ft 430 kts 207°
2026-04-30 08:37 31.89982 -11.64528 37099 ft 431 kts 207°
2026-04-30 08:37 31.84518 -11.67425 37102 ft 431 kts 207°
2026-04-30 08:38 31.79042 -11.70326 37091 ft 431 kts 207°
2026-04-30 08:38 31.73607 -11.73200 37103 ft 431 kts 207°
2026-04-30 08:39 31.68127 -11.76095 37100 ft 432 kts 207°
2026-04-30 08:39 31.62648 -11.78986 37105 ft 432 kts 207°
2026-04-30 08:40 31.57167 -11.81874 37106 ft 432 kts 207°
2026-04-30 08:40 31.51681 -11.84760 37096 ft 432 kts 207°
2026-04-30 08:41 31.46192 -11.87645 37102 ft 432 kts 207°
2026-04-30 08:41 31.40707 -11.90523 37102 ft 432 kts 207°
2026-04-30 08:42 31.35220 -11.93400 37106 ft 432 kts 207°
2026-04-30 08:42 31.29725 -11.96276 37112 ft 433 kts 207°
2026-04-30 08:43 31.24226 -11.99151 37102 ft 433 kts 207°
2026-04-30 08:43 31.18727 -12.02022 37105 ft 433 kts 207°
2026-04-30 08:44 31.13222 -12.04893 37098 ft 433 kts 208°
2026-04-30 08:44 31.07711 -12.07764 37114 ft 435 kts 208°
2026-04-30 08:45 31.02257 -12.10816 37116 ft 435 kts 211°
2026-04-30 08:45 30.96874 -12.14079 37115 ft 437 kts 211°
2026-04-30 08:46 30.91465 -12.17358 37100 ft 439 kts 211°
2026-04-30 08:46 30.86019 -12.20620 37111 ft 441 kts 211°
2026-04-30 08:47 30.80552 -12.23873 37107 ft 442 kts 211°
2026-04-30 08:47 30.75071 -12.27124 37106 ft 443 kts 211°
2026-04-30 08:48 30.69571 -12.30384 36797 ft 448 kts 211°
2026-04-30 08:48 30.66797 -12.32027 36448 ft 445 kts 211°
2026-04-30 08:48 30.64053 -12.33649 35988 ft 440 kts 211°
2026-04-30 08:48 30.61335 -12.35254 35582 ft 436 kts 211°
2026-04-30 08:49 30.58640 -12.36845 35171 ft 433 kts 211°
2026-04-30 08:49 30.55969 -12.38421 34774 ft 429 kts 211°
2026-04-30 08:49 30.53316 -12.39987 34375 ft 426 kts 211°
2026-04-30 08:49 30.50717 -12.41521 33937 ft 424 kts 212°
2026-04-30 08:50 30.48060 -12.43088 33460 ft 422 kts 212°
2026-04-30 08:50 30.45457 -12.44622 33056 ft 418 kts 212°
2026-04-30 08:50 30.42872 -12.46144 32655 ft 415 kts 212°
2026-04-30 08:50 30.40305 -12.47655 32265 ft 412 kts 212°
2026-04-30 08:51 30.37763 -12.49150 31873 ft 408 kts 211°
2026-04-30 08:51 30.35270 -12.50615 31499 ft 405 kts 211°
2026-04-30 08:51 30.32767 -12.52086 31121 ft 402 kts 211°
2026-04-30 08:51 30.30284 -12.53545 30764 ft 399 kts 211°
2026-04-30 08:52 30.27816 -12.54993 30391 ft 396 kts 211°
2026-04-30 08:52 30.25374 -12.56426 30005 ft 393 kts 210°
2026-04-30 08:52 30.22945 -12.57850 29572 ft 389 kts 210°
2026-04-30 08:52 30.20545 -12.59255 29195 ft 385 kts 210°
2026-04-30 08:53 30.18169 -12.60646 28812 ft 381 kts 210°
2026-04-30 08:53 30.15819 -12.62021 28418 ft 377 kts 210°
2026-04-30 08:53 30.13486 -12.63386 28049 ft 374 kts 211°
2026-04-30 08:53 30.11177 -12.64736 27664 ft 371 kts 211°
2026-04-30 08:54 30.08888 -12.66073 27294 ft 368 kts 211°
2026-04-30 08:54 30.06614 -12.67402 26927 ft 365 kts 211°
2026-04-30 08:54 30.04354 -12.68721 26559 ft 362 kts 211°
2026-04-30 08:54 30.02112 -12.70029 26190 ft 361 kts 211°
2026-04-30 08:55 29.99867 -12.71339 25924 ft 365 kts 211°
2026-04-30 08:55 29.97549 -12.72696 25715 ft 384 kts 210°
2026-04-30 08:55 29.95112 -12.74123 25500 ft 402 kts 210°
2026-04-30 08:55 29.92565 -12.75611 25279 ft 419 kts 210°
2026-04-30 08:56 29.89918 -12.77154 25040 ft 430 kts 210°
2026-04-30 08:56 29.87242 -12.78707 24798 ft 432 kts 210°
2026-04-30 08:56 29.84562 -12.80259 24556 ft 429 kts 210°
2026-04-30 08:56 29.81938 -12.81778 24322 ft 427 kts 210°
2026-04-30 08:57 29.79299 -12.83305 23874 ft 423 kts 210°
2026-04-30 08:57 29.76675 -12.84824 23316 ft 419 kts 210°
2026-04-30 08:57 29.74086 -12.86324 22764 ft 415 kts 210°
2026-04-30 08:57 29.71525 -12.87807 22241 ft 411 kts 210°
2026-04-30 08:58 29.68981 -12.89280 21710 ft 407 kts 210°
2026-04-30 08:58 29.66465 -12.90736 21199 ft 403 kts 210°
2026-04-30 08:58 29.63973 -12.92178 20695 ft 400 kts 210°
2026-04-30 08:58 29.61500 -12.93608 20191 ft 396 kts 210°
2026-04-30 08:59 29.59047 -12.95025 19698 ft 394 kts 210°
2026-04-30 08:59 29.56606 -12.96435 19207 ft 391 kts 210°
2026-04-30 08:59 29.54179 -12.97836 18705 ft 389 kts 210°
2026-04-30 08:59 29.51768 -12.99228 18162 ft 388 kts 210°
2026-04-30 09:00 29.49369 -13.00611 17625 ft 385 kts 210°
2026-04-30 09:00 29.46979 -13.01988 17093 ft 382 kts 210°
2026-04-30 09:00 29.44616 -13.03349 16600 ft 379 kts 210°
2026-04-30 09:00 29.42269 -13.04700 16115 ft 376 kts 210°
2026-04-30 09:01 29.39938 -13.06041 15631 ft 373 kts 210°
2026-04-30 09:01 29.37627 -13.07370 15155 ft 371 kts 210°
2026-04-30 09:01 29.35325 -13.08693 14682 ft 369 kts 210°
2026-04-30 09:01 29.33040 -13.10006 14210 ft 367 kts 209°
2026-04-30 09:02 29.28485 -13.12621 13180 ft 364 kts 209°
2026-04-30 09:02 29.26232 -13.13913 12675 ft 362 kts 209°
2026-04-30 09:02 29.23990 -13.15199 12201 ft 359 kts 209°
2026-04-30 09:03 29.21762 -13.16476 11729 ft 357 kts 209°
2026-04-30 09:03 29.19542 -13.17747 11262 ft 355 kts 209°
2026-04-30 09:03 29.17359 -13.18996 11094 ft 345 kts 209°
2026-04-30 09:03 29.15249 -13.20201 10916 ft 335 kts 209°
2026-04-30 09:04 29.13192 -13.21376 10771 ft 325 kts 209°
2026-04-30 09:04 29.11196 -13.22517 10625 ft 316 kts 209°
2026-04-30 09:04 29.09253 -13.23627 10498 ft 308 kts 210°
2026-04-30 09:04 29.07363 -13.24707 10366 ft 300 kts 210°
2026-04-30 09:05 29.05549 -13.25744 10240 ft 292 kts 210°
2026-04-30 09:05 29.03733 -13.26781 10110 ft 285 kts 210°
2026-04-30 09:05 29.01989 -13.27777 9831 ft 283 kts 210°
2026-04-30 09:05 29.00231 -13.28781 9544 ft 282 kts 210°
2026-04-30 09:06 28.98482 -13.29780 9253 ft 281 kts 210°
2026-04-30 09:06 28.96740 -13.30774 8964 ft 280 kts 210°
2026-04-30 09:06 28.95146 -13.31997 8551 ft 273 kts 233°
2026-04-30 09:06 28.94115 -13.33752 8293 ft 262 kts 241°
2026-04-30 09:07 28.93161 -13.35540 7894 ft 265 kts 241°
2026-04-30 09:07 28.92192 -13.37336 7594 ft 266 kts 240°
2026-04-30 09:07 28.91191 -13.39108 7356 ft 264 kts 236°
2026-04-30 09:07 28.90066 -13.40757 7119 ft 263 kts 233°
2026-04-30 09:08 28.88911 -13.42370 6864 ft 262 kts 233°
2026-04-30 09:08 28.87760 -13.43977 6609 ft 261 kts 233°
2026-04-30 09:08 28.86612 -13.45591 6260 ft 264 kts 233°
2026-04-30 09:08 28.85461 -13.47221 5974 ft 263 kts 233°
2026-04-30 09:09 28.84318 -13.48846 5696 ft 262 kts 233°
2026-04-30 09:09 28.83185 -13.50463 5437 ft 261 kts 234°
2026-04-30 09:09 28.82053 -13.52081 5185 ft 260 kts 234°
2026-04-30 09:09 28.80932 -13.53685 4929 ft 259 kts 234°
2026-04-30 09:10 28.79814 -13.55284 4686 ft 257 kts 234°
2026-04-30 09:10 28.78717 -13.56853 4585 ft 249 kts 234°
2026-04-30 09:10 28.77652 -13.58373 4456 ft 242 kts 234°
2026-04-30 09:10 28.76711 -13.59926 4327 ft 233 kts 251°
2026-04-30 09:11 28.76498 -13.61696 4114 ft 226 kts 278°
2026-04-30 09:11 28.76891 -13.63420 3860 ft 224 kts 289°
2026-04-30 09:11 28.77378 -13.65112 3595 ft 225 kts 289°
2026-04-30 09:11 28.77868 -13.66800 3350 ft 224 kts 292°
2026-04-30 09:12 28.78765 -13.68172 3084 ft 220 kts 330°
2026-04-30 09:12 28.79720 -13.68537 2997 ft 212 kts 358°
2026-04-30 09:12 28.81540 -13.67956 2697 ft 204 kts 20°
2026-04-30 09:12 28.82827 -13.67333 2422 ft 198 kts 24°
2026-04-30 09:13 28.84035 -13.66653 2147 ft 186 kts 26°
2026-04-30 09:13 28.85141 -13.66005 1895 ft 171 kts 26°
2026-04-30 09:13 28.86163 -13.65408 1676 ft 159 kts 26°
2026-04-30 09:13 28.87114 -13.64853 1508 ft 148 kts 26°
2026-04-30 09:14 28.87720 -13.64500 1374 ft 148 kts 27°
2026-04-30 09:14 28.88639 -13.63964 1150 ft 147 kts 26°
2026-04-30 09:14 28.89537 -13.63440 950 ft 144 kts 24°
2026-04-30 09:14 28.90427 -13.62920 780 ft 144 kts 27°
2026-04-30 09:15 28.91326 -13.62396 574 ft 146 kts 27°
2026-04-30 09:15 28.92228 -13.61869 404 ft 145 kts 28°
2026-04-30 09:15 28.93140 -13.61340 217 ft 148 kts 29°
2026-04-30 09:15 28.94046 -13.60814 31 ft 140 kts 28°
2026-04-30 09:16 28.94770 -13.60393 41 ft 106 kts 26°
2026-04-30 09:16 28.95099 -13.60219 46 ft 28 kts 13°
2026-04-30 09:16 28.95268 -13.60207 44 ft 18 kts 359°
2026-04-30 09:16 28.95315 -13.60283 49 ft 13 kts 223°
2026-04-30 09:17 28.95237 -13.60330 49 ft 12 kts 206°
2026-04-30 09:17 28.95187 -13.60359 48 ft 0 kts 208°
2026-04-30 09:18 28.95178 -13.60364 49 ft 4 kts 208°
2026-04-30 09:19 28.95141 -13.60387 49 ft 9 kts 208°
2026-04-30 09:19 28.95072 -13.60428 48 ft 15 kts 207°
2026-04-30 09:19 28.94967 -13.60488 49 ft 18 kts 206°
2026-04-30 09:19 28.94879 -13.60544 49 ft 13 kts 230°
2026-04-30 09:20 28.94894 -13.60636 49 ft 12 kts 297°
2026-04-30 09:20 28.94940 -13.60715 49 ft 12 kts 295°
2026-04-30 09:20 28.94964 -13.60772 48 ft 3 kts 296°
2026-04-30 09:20 28.94966 -13.60776 49 ft 1 kts 296°
2026-04-30 09:21 28.94967 -13.60778 49 ft 0 kts 296°